Find Starlink 35639

NORAD ID: 66382 Int'l Des: 2025-257 Owner: SPXS Country: US Constellation: starlink operational
LEOCIRCULAR

当前视图

正在加载3D地球...

About Starlink 35639

Starlink 35639 (NORAD 66382) is a starlink constellation satellite (v2 mini) launched Nov 9, 2025 by SPXS of US. It operates in LEO, CIRCULAR orbit with a mass of 575.00 kg.

即将过境

Passes for default location (London). Set your location on the main map for personalized predictions.

高度历史

Loading altitude history...

两行轨道根数

1 66382U 25257C 26264.87792630 .00010360 00000-0 31747-3 0 9993
2 66382 53.1591 23.4218 0001157 104.1776 255.9355 15.34386230 49801
Epoch: Sep 21, 2026 • Age: 7 hours

当前状态

高度 462.6 km
远地点 / 近地点 N/A
速度 7.64 km/s
星下点 18.81°N, 126.32°E
发射日期 Nov 9, 2025
运行时间 0.8 years
类型 internet

技术详情

分类 Payload
质量 575.00 kg
干质量 530.00 kg
长度 0.30 m
跨度 29.00 m
形状 ? Box + pan
制造商 SPXS
平台类型 Starlink V2MO
阶段状态 In Orbit
所有者/国家 SPXS/US

Most Searched